DW5010 Weather Reports


Display with metric or nautical units.
time (UTC)temp
F
wind
direction
speed
MPH
gust
MPH
rain 1hr
in
rain 24hr
in
rain mn
in
humidity
%
barometer
mb
20260510051528 45 41 1.0 5.0 0.00 0.00 0.00 62 1012.6
20260510051013 45 0 1.0 5.0 0.00 0.00 0.00 61 1012.6
20260510050513 45 0 1.0 6.0 0.00 0.00 0.00 61 1012.5
20260510050032 45 65 1.0 6.0 0.00 0.00 0.00 61 1012.5
20260510045514 45 52 2.0 5.0 0.00 0.00 0.00 61 1012.4
20260510045015 45 343 2.0 8.0 0.00 0.00 0.00 60 1012.4
20260510044530 46 25 3.0 8.0 0.00 0.00 0.00 60 1012.4
20260510044015 46 326 2.0 6.0 0.00 0.00 0.00 60 1012.4
20260510043512 46 36 2.0 10.0 0.00 0.00 0.00 60 1012.2
20260510043030 46 33 4.0 12.0 0.00 0.00 0.00 59 1012.2
20260510042515 46 22 5.0 12.0 0.00 0.00 0.00 58 1012.1
20260510042014 47 18 3.0 8.0 0.00 0.00 0.00 57 1012.0
20260510041544 47 44 3.0 12.0 0.00 0.00 0.00 56 1012.0
20260510041014 47 30 2.0 12.0 0.00 0.00 0.00 55 1011.8
20260510040514 48 42 3.0 12.0 0.00 0.00 0.00 53 1011.7
20260510040033 49 54 4.0 12.0 0.00 0.00 0.00 51 1011.5
20260510035515 50 26 5.0 16.0 0.00 0.00 0.00 49 1011.4
20260510035014 51 355 6.0 16.0 0.00 0.00 0.00 45 1011.4
20260510034530 51 32 9.0 16.0 0.00 0.00 0.00 43 1011.3
20260510034014 51 355 2.0 5.0 0.00 0.00 0.00 45 1010.8
20260510033513 51 0 1.0 5.0 0.00 0.00 0.00 44 1010.6
20260510033028 51 20 0.0 4.0 0.00 0.00 0.00 44 1010.4
20260510032514 51 348 1.0 5.0 0.00 0.00 0.00 44 1010.3
20260510032011 52 352 1.0 5.0 0.00 0.00 0.00 44 1010.3
20260510031534 52 344 1.0 5.0 0.00 0.00 0.00 44 1010.2
20260510031013 52 323 0.0 5.0 0.00 0.00 0.00 43 1010.2
20260510030512 53 0 0.0 6.0 0.00 0.00 0.00 44 1010.1
20260510030031 53 0 1.0 8.0 0.00 0.00 0.00 43 1010.1
20260510025510 53 0 1.0 8.0 0.00 0.00 0.00 43 1010.0
20260510025014 53 338 0.0 5.0 0.00 0.00 0.00 42 1009.9
20260510024531 54 0 0.0 5.0 0.00 0.00 0.00 42 1009.9
20260510024013 54 0 1.0 5.0 0.00 0.00 0.00 42 1009.8
20260510023514 54 311 1.0 8.0 0.00 0.00 0.00 42 1009.7
20260510023028 54 343 3.0 8.0 0.00 0.00 0.00 42 1009.6
20260510022518 54 355 1.0 5.0 0.00 0.00 0.00 42 1009.6
20260510022012 55 0 1.0 5.0 0.00 0.00 0.00 42 1009.6
20260510021536 55 329 1.0 7.0 0.00 0.00 0.00 42 1009.3
20260510021011 55 334 1.0 7.0 0.00 0.00 0.00 42 1009.3
20260510020514 56 331 2.0 11.0 0.00 0.00 0.00 42 1009.1
20260510020033 55 331 3.0 11.0 0.00 0.00 0.00 42 1008.9
20260510015513 55 80 4.0 9.0 0.00 0.00 0.00 42 1008.9
20260510015015 56 303 2.0 9.0 0.00 0.00 0.00 43 1008.6
20260510014533 56 355 3.0 8.0 0.00 0.00 0.00 43 1008.6
20260510014016 56 15 2.0 7.0 0.00 0.00 0.00 43 1008.5
20260510013519 56 360 1.0 5.0 0.00 0.00 0.00 43 1008.3
20260510013037 56 301 2.0 6.0 0.00 0.00 0.00 42 1008.1
20260510012515 56 296 2.0 6.0 0.00 0.00 0.00 43 1008.0
20260510012015 57 0 2.0 6.0 0.00 0.00 0.00 43 1007.9
20260510011530 57 325 1.0 6.0 0.00 0.00 0.00 42 1007.8
20260510011017 58 342 1.0 10.0 0.00 0.00 0.00 41 1007.6
20260510010515 58 352 2.0 10.0 0.00 0.00 0.00 41 1007.5
20260510010030 58 330 3.0 12.0 0.00 0.00 0.00 40 1007.4
20260510005516 58 17 3.0 12.0 0.00 0.00 0.00 40 1007.4
20260510005014 59 296 2.0 11.0 0.00 0.00 0.00 40 1007.4
20260510004532 59 228 2.0 11.0 0.00 0.00 0.00 41 1007.2
20260510004018 59 305 4.0 11.0 0.00 0.00 0.00 39 1007.2
20260510003514 59 5 4.0 11.0 0.00 0.00 0.00 40 1007.0
20260510003040 59 236 3.0 11.0 0.00 0.00 0.00 40 1007.0
20260510002516 60 317 2.0 11.0 0.00 0.00 0.00 41 1006.8
20260510002015 60 257 3.0 11.0 0.00 0.00 0.00 40 1006.7
20260510001539 60 333 3.0 16.0 0.00 0.00 0.00 41 1006.7
20260510001014 61 297 3.0 16.0 0.00 0.00 0.00 40 1006.6
20260510000517 61 18 3.0 16.0 0.00 0.00 0.00 39 1006.5
20260510000030 61 355 3.0 16.0 0.00 0.00 0.00 39 1006.5
20260509235514 62 355 3.0 16.0 0.00 0.00 0.00 40 1006.5
20260509235016 63 250 3.0 12.0 0.00 0.00 0.00 38 1006.3
20260509234537 63 304 3.0 11.0 0.00 0.00 0.00 38 1006.3
20260509234018 63 355 3.0 14.0 0.00 0.00 0.00 39 1006.3
20260509233516 63 217 4.0 14.0 0.00 0.00 0.00 37 1006.2
20260509233032 64 313 4.0 14.0 0.00 0.00 0.00 39 1006.3
20260509232516 64 197 3.0 9.0 0.00 0.00 0.00 40 1006.2
20260509232014 63 251 3.0 15.0 0.00 0.00 0.00 40 1006.2
20260509231531 63 275 5.0 15.0 0.00 0.00 0.00 39 1006.1
20260509231016 64 281 4.0 14.0 0.00 0.00 0.00 39 1006.1
20260509230514 64 308 7.0 14.0 0.00 0.00 0.00 39 1005.9
20260509230032 65 326 5.0 14.0 0.00 0.00 0.00 38 1005.8
20260509225516 65 312 3.0 14.0 0.00 0.00 0.00 39 1005.7
20260509225016 65 360 5.0 15.0 0.00 0.00 0.00 41 1005.6
20260509224532 65 346 4.0 15.0 0.00 0.00 0.00 40 1005.6
20260509224012 65 273 6.0 15.0 0.00 0.00 0.00 38 1005.6
20260509223511 65 350 4.0 16.0 0.00 0.00 0.00 38 1005.6
20260509223030 65 349 4.0 16.0 0.00 0.00 0.00 40 1005.5
20260509222512 65 213 3.0 19.0 0.00 0.00 0.00 39 1005.3
20260509222017 65 306 6.0 19.0 0.00 0.00 0.00 37 1005.2
20260509221530 65 298 5.0 13.0 0.00 0.00 0.00 40 1005.2
20260509221011 64 297 4.0 13.0 0.00 0.00 0.00 39 1005.1
20260509220512 64 304 5.0 13.0 0.00 0.00 0.00 40 1005.1
20260509220034 63 320 4.0 15.0 0.00 0.00 0.00 40 1004.9
20260509215513 64 43 7.0 15.0 0.00 0.00 0.00 41 1004.9
20260509215010 65 284 5.0 18.0 0.00 0.00 0.00 38 1004.9
20260509214537 66 248 6.0 18.0 0.00 0.00 0.00 37 1004.7
20260509214015 67 317 6.0 17.0 0.00 0.00 0.00 42 1004.6
20260509213515 67 304 5.0 17.0 0.00 0.00 0.00 38 1004.6
20260509213030 67 30 5.0 19.0 0.00 0.00 0.00 38 1004.5
20260509212513 67 309 5.0 19.0 0.00 0.00 0.00 37 1004.5
20260509212011 67 272 7.0 19.0 0.00 0.00 0.00 37 1004.4
20260509211528 67 301 5.0 16.0 0.00 0.00 0.00 37 1004.3
20260509211010 68 332 7.0 16.0 0.00 0.00 0.00 39 1004.2
20260509210511 68 279 6.0 16.0 0.00 0.00 0.00 37 1004.2
20260509210033 68 263 8.0 16.0 0.00 0.00 0.00 36 1004.4
20260509205513 68 315 6.0 17.0 0.00 0.00 0.00 38 1004.2
20260509205013 68 316 5.0 17.0 0.00 0.00 0.00 36 1004.0
20260509204540 68 218 7.0 21.0 0.00 0.00 0.00 37 1004.0
20260509204010 68 245 6.0 22.0 0.00 0.00 0.00 38 1003.9
20260509203514 68 318 8.0 22.0 0.00 0.00 0.00 38 1004.0
20260509203033 68 316 7.0 17.0 0.00 0.00 0.00 40 1003.8
20260509202511 68 25 5.0 20.0 0.00 0.00 0.00 41 1003.8
20260509202011 68 258 7.0 20.0 0.00 0.00 0.00 41 1003.6
20260509201528 68 360 9.0 19.0 0.00 0.00 0.00 41 1003.7
20260509201013 69 360 7.0 19.0 0.00 0.00 0.00 42 1003.5
20260509200515 69 259 9.0 18.0 0.00 0.00 0.00 37 1003.3
20260509200038 69 312 7.0 22.0 0.00 0.00 0.00 38 1003.2
20260509195511 69 316 7.0 22.0 0.00 0.00 0.00 39 1003.0
20260509195017 69 337 7.0 20.0 0.00 0.00 0.00 39 1003.0
20260509194539 68 287 5.0 23.0 0.00 0.00 0.00 40 1002.7
20260509194013 67 275 10.0 23.0 0.00 0.00 0.00 38 1002.6
20260509193516 66 275 7.0 17.0 0.00 0.00 0.00 38 1002.6
20260509193038 66 305 6.0 17.0 0.00 0.00 0.00 39 1002.5
20260509192516 67 283 6.0 18.0 0.00 0.00 0.00 39 1002.5
20260509192014 67 264 7.0 18.0 0.00 0.00 0.00 38 1002.5
20260509191529 68 306 7.0 18.0 0.00 0.00 0.00 36 1002.4
20260509191015 69 277 7.0 16.0 0.00 0.00 0.00 35 1002.3
20260509190516 69 325 7.0 26.0 0.00 0.00 0.00 37 1002.3
20260509190032 69 224 8.0 26.0 0.00 0.00 0.00 36 1002.3
20260509185519 69 233 14.0 26.0 0.00 0.00 0.00 36 1002.3
20260509185018 69 262 9.0 30.0 0.00 0.00 0.00 35 1002.2
20260509184535 69 292 12.0 30.0 0.00 0.00 0.00 37 1002.4
20260509184015 69 252 13.0 30.0 0.00 0.00 0.00 37 1002.4
20260509183515 69 261 11.0 23.0 0.00 0.00 0.00 37 1002.2
20260509183031 68 234 11.0 20.0 0.00 0.00 0.00 38 1002.2
20260509182516 68 302 6.0 22.0 0.00 0.00 0.00 38 1002.2
20260509182015 68 259 8.0 22.0 0.00 0.00 0.00 39 1002.3
20260509181529 67 261 6.0 24.0 0.00 0.00 0.00 38 1002.1
20260509181015 66 244 9.0 24.0 0.00 0.00 0.00 37 1002.2
20260509180515 67 210 9.0 21.0 0.00 0.00 0.00 35 1002.2
20260509180033 67 219 5.0 27.0 0.00 0.00 0.00 37 1002.2
20260509175515 68 267 8.0 27.0 0.00 0.00 0.00 36 1002.2
20260509175016 69 238 10.0 21.0 0.00 0.00 0.00 34 1002.3
20260509174530 68 225 9.0 20.0 0.00 0.00 0.00 35 1002.4
20260509174015 68 267 8.0 24.0 0.00 0.00 0.00 36 1002.2
20260509173516 67 238 6.0 24.0 0.00 0.00 0.00 40 1002.3
20260509173035 67 286 8.0 18.0 0.00 0.00 0.00 36 1002.2
20260509172516 67 221 8.0 19.0 0.00 0.00 0.00 36 1002.3
20260509172016 67 229 7.0 19.0 0.00 0.00 0.00 36 1002.3
20260509171533 66 273 8.0 18.0 0.00 0.00 0.00 37 1002.2
20260509171015 67 250 8.0 14.0 0.00 0.00 0.00 36 1002.2
20260509170515 66 248 6.0 12.0 0.00 0.00 0.00 39 1002.2
20260509170031 65 251 5.0 13.0 0.00 0.00 0.00 41 1002.3
20260509165515 65 258 6.0 13.0 0.00 0.00 0.00 38 1002.4
20260509165018 65 274 7.0 12.0 0.00 0.00 0.00 37 1002.4
20260509164534 64 256 6.0 12.0 0.00 0.00 0.00 38 1002.4
20260509164014 64 241 6.0 12.0 0.00 0.00 0.00 37 1002.5
20260509163512 63 247 5.0 12.0 0.00 0.00 0.00 38 1002.5
20260509163032 63 238 3.0 10.0 0.00 0.00 0.00 37 1002.4
20260509162520 63 229 4.0 11.0 0.00 0.00 0.00 37 1002.5
20260509162016 63 171 3.0 11.0 0.00 0.00 0.00 36 1002.6
20260509161531 64 323 4.0 11.0 0.00 0.00 0.00 36 1002.8
20260509161015 63 217 0.0 8.0 0.00 0.00 0.00 39 1002.8
20260509160515 63 263 2.0 13.0 0.00 0.00 0.00 38 1002.9
20260509160032 64 260 3.0 13.0 0.00 0.00 0.00 34 1002.9
20260509155515 65 258 5.0 13.0 0.00 0.00 0.00 34 1002.9
20260509155015 65 259 5.0 11.0 0.00 0.00 0.00 41 1002.8
20260509154535 64 306 5.0 10.0 0.00 0.00 0.00 38 1002.9
20260509154016 63 281 4.0 13.0 0.00 0.00 0.00 44 1002.9
20260509153516 63 248 7.0 13.0 0.00 0.00 0.00 39 1002.9
20260509153032 63 271 6.0 12.0 0.00 0.00 0.00 41 1002.8
20260509152515 63 300 3.0 10.0 0.00 0.00 0.00 42 1002.8
20260509152013 62 352 3.0 9.0 0.00 0.00 0.00 42 1002.7
20260509151534 62 294 3.0 9.0 0.00 0.00 0.00 42 1002.8
20260509151015 62 267 2.0 9.0 0.00 0.00 0.00 46 1002.7
20260509150514 62 259 2.0 10.0 0.00 0.00 0.00 47 1002.7
20260509150030 61 19 4.0 10.0 0.00 0.00 0.00 45 1002.6
20260509145514 61 254 3.0 9.0 0.00 0.00 0.00 45 1002.4
20260509145016 61 242 2.0 9.0 0.00 0.00 0.00 44 1002.3
20260509144534 61 360 1.0 8.0 0.00 0.00 0.00 48 1002.3
20260509144013 61 0 3.0 8.0 0.00 0.00 0.00 46 1002.2
20260509143515 61 344 1.0 8.0 0.00 0.00 0.00 48 1002.1
20260509143037 61 259 4.0 11.0 0.00 0.00 0.00 46 1002.1
20260509142515 61 255 3.0 11.0 0.00 0.00 0.00 44 1002.0
20260509142014 62 260 4.0 11.0 0.00 0.00 0.00 44 1002.0
20260509141537 62 227 3.0 9.0 0.00 0.00 0.00 47 1002.0
20260509141014 62 243 3.0 13.0 0.00 0.00 0.00 48 1001.9
20260509140514 62 315 4.0 13.0 0.00 0.00 0.00 48 1001.8
20260509140053 61 241 5.0 13.0 0.00 0.00 0.00 48 1001.8
20260509135514 61 243 4.0 13.0 0.00 0.00 0.00 49 1001.8
20260509135015 61 254 5.0 10.0 0.00 0.00 0.00 49 1001.8
20260509134533 61 257 4.0 12.0 0.00 0.00 0.00 52 1001.8
20260509134013 60 219 5.0 15.0 0.00 0.00 0.00 53 1001.8
20260509133514 60 271 5.0 15.0 0.00 0.00 0.00 53 1001.8
20260509133030 60 246 6.0 14.0 0.00 0.00 0.00 54 1001.8
20260509132512 60 229 6.0 13.0 0.00 0.00 0.00 57 1001.8
20260509132015 59 240 6.0 13.0 0.00 0.00 0.00 58 1001.8
20260509131539 59 238 3.0 10.0 0.00 0.00 0.00 62 1001.6
20260509131015 58 272 2.0 8.0 0.00 0.00 0.00 64 1001.6
20260509130515 58 295 3.0 8.0 0.00 0.00 0.00 66 1001.5
20260509130032 57 287 3.0 11.0 0.00 0.00 0.00 68 1001.5
20260509125515 57 246 5.0 12.0 0.00 0.00 0.00 69 1001.3
20260509125014 57 234 6.0 12.0 0.00 0.00 0.00 70 1001.4
20260509124535 56 263 5.0 14.0 0.00 0.00 0.00 72 1001.5
20260509124014 56 213 3.0 14.0 0.00 0.00 0.00 73 1001.4
20260509123512 55 195 5.0 14.0 0.00 0.00 0.00 74 1001.3
20260509123030 55 250 5.0 9.0 0.00 0.00 0.00 75 1001.3
20260509122512 55 248 4.0 9.0 0.00 0.00 0.00 76 1001.3
20260509122014 55 241 4.0 10.0 0.00 0.00 0.00 76 1001.3
20260509121547 55 199 3.0 11.0 0.00 0.00 0.00 77 1001.4
20260509121019 54 196 4.0 11.0 0.00 0.00 0.00 77 1001.5
20260509120515 54 229 4.0 10.0 0.00 0.00 0.00 78 1001.5
20260509120035 54 221 3.0 10.0 0.00 0.00 0.00 79 1001.4
20260509115514 54 275 3.0 9.0 0.00 0.00 0.00 79 1001.4
20260509115014 53 189 4.0 11.0 0.00 0.00 0.00 79 1001.3
20260509114532 53 209 4.0 11.0 0.00 0.00 0.00 80 1001.2
20260509114015 53 248 3.0 10.0 0.00 0.00 0.00 80 1001.2
20260509113515 53 195 2.0 9.0 0.00 0.00 0.00 81 1001.2
20260509113029 53 213 3.0 10.0 0.00 0.00 0.00 80 1001.1
20260509112515 53 227 4.0 10.0 0.00 0.00 0.00 80 1001.1
20260509112016 53 247 4.0 10.0 0.00 0.00 0.00 80 1001.0
20260509111532 53 246 4.0 11.0 0.00 0.00 0.00 80 1001.0
20260509111016 53 186 3.0 11.0 0.00 0.00 0.00 80 1001.0
20260509110514 53 223 3.0 11.0 0.00 0.00 0.00 80 1000.9
20260509110032 53 171 4.0 11.0 0.00 0.00 0.00 80 1000.8
20260509105515 53 242 3.0 10.0 0.00 0.00 0.00 80 1000.8
20260509105014 53 214 3.0 11.0 0.00 0.00 0.00 80 1000.7
20260509104533 53 235 4.0 11.0 0.00 0.00 0.00 80 1000.6
20260509104014 53 235 5.0 11.0 0.00 0.00 0.00 80 1000.6
20260509103514 53 198 4.0 10.0 0.00 0.00 0.00 79 1000.5
20260509103035 53 211 3.0 9.0 0.00 0.00 0.00 79 1000.5
20260509102514 53 188 4.0 9.0 0.00 0.00 0.00 79 1000.3
20260509102015 53 209 3.0 9.0 0.00 0.00 0.00 79 1000.3
20260509101532 54 246 4.0 11.0 0.00 0.00 0.00 79 1000.3
20260509101014 54 224 2.0 11.0 0.00 0.00 0.00 78 1000.4
20260509100514 54 75 4.0 12.0 0.00 0.00 0.00 78 1000.4
20260509100033 54 162 4.0 12.0 0.00 0.00 0.00 78 1000.4
20260509095514 54 182 3.0 10.0 0.00 0.00 0.00 78 1000.4
20260509095013 54 222 4.0 12.0 0.00 0.00 0.00 78 1000.5
20260509094529 54 234 4.0 12.0 0.00 0.00 0.00 78 1000.6
20260509094016 54 221 4.0 11.0 0.00 0.00 0.00 78 1000.7
20260509093514 54 215 4.0 11.0 0.00 0.00 0.00 77 1000.6
20260509093028 54 223 5.0 11.0 0.00 0.00 0.00 77 1000.7
20260509092514 54 248 4.0 10.0 0.00 0.00 0.00 77 1000.7
20260509092014 54 219 4.0 10.0 0.00 0.00 0.00 77 1000.7
20260509091530 54 234 3.0 11.0 0.00 0.00 0.00 77 1000.6
20260509091014 54 211 5.0 11.0 0.00 0.00 0.00 77 1000.6
20260509090512 54 201 3.0 15.0 0.00 0.00 0.00 77 1000.7
20260509090032 54 177 4.0 15.0 0.00 0.00 0.00 77 1000.7
20260509085514 54 244 5.0 15.0 0.00 0.00 0.00 77 1000.6
20260509085014 54 207 5.0 10.0 0.00 0.00 0.00 77 1000.7
20260509084535 54 246 4.0 11.0 0.00 0.00 0.00 77 1000.7
20260509084016 54 186 5.0 12.0 0.00 0.00 0.00 78 1000.7
20260509083513 54 205 4.0 12.0 0.00 0.00 0.00 78 1000.7
20260509083044 54 246 6.0 11.0 0.00 0.00 0.00 78 1000.6
20260509082513 54 166 4.0 10.0 0.00 0.00 0.00 78 1000.7
20260509082014 54 0 3.0 11.0 0.00 0.00 0.00 78 1000.8
20260509081530 54 174 4.0 11.0 0.00 0.00 0.00 77 1000.6
20260509081014 54 198 3.0 12.0 0.00 0.00 0.00 77 1000.8
20260509080515 54 192 3.0 15.0 0.00 0.00 0.00 77 1000.7
20260509080031 54 196 6.0 15.0 0.00 0.00 0.00 77 1000.7
20260509075521 54 209 5.0 11.0 0.00 0.00 0.00 77 1000.7
20260509075016 53 246 3.0 11.0 0.00 0.00 0.00 77 1000.8
20260509074528 53 153 3.0 10.0 0.00 0.00 0.00 77 1000.9
20260509074014 53 150 5.0 11.0 0.00 0.00 0.00 77 1001.0
20260509073514 53 196 4.0 12.0 0.00 0.00 0.00 77 1001.0
20260509073036 53 185 4.0 12.0 0.00 0.00 0.00 77 1001.0
20260509072514 52 144 3.0 11.0 0.00 0.00 0.00 76 1001.0
20260509072014 52 155 3.0 11.0 0.00 0.00 0.00 76 1001.0
20260509071532 52 167 3.0 11.0 0.00 0.00 0.00 75 1001.1
20260509071018 52 132 2.0 8.0 0.00 0.00 0.00 75 1001.2
20260509070517 52 146 3.0 11.0 0.00 0.00 0.00 75 1001.2
20260509070035 52 153 3.0 11.0 0.00 0.00 0.00 74 1001.4
20260509065514 52 167 3.0 9.0 0.00 0.00 0.00 74 1001.5
20260509065019 52 167 4.0 10.0 0.00 0.00 0.00 74 1001.6
20260509064531 53 209 3.0 10.0 0.00 0.00 0.00 73 1001.5
20260509064017 53 153 3.0 9.0 0.00 0.00 0.00 73 1001.5
20260509063514 53 184 3.0 12.0 0.00 0.00 0.00 72 1001.6
20260509063034 53 205 4.0 12.0 0.00 0.00 0.00 72 1001.8
20260509062513 52 187 3.0 12.0 0.00 0.00 0.00 72 1001.8
20260509062018 52 183 5.0 12.0 0.00 0.00 0.00 72 1001.9
20260509061533 52 207 3.0 10.0 0.00 0.00 0.00 72 1002.1
20260509061012 52 178 5.0 12.0 0.00 0.00 0.00 72 1002.1
20260509060515 52 126 5.0 12.0 0.00 0.00 0.00 72 1002.1
20260509060028 52 152 4.0 10.0 0.00 0.00 0.00 72 1002.1
20260509055516 52 157 3.0 10.0 0.00 0.00 0.00 72 1002.1
20260509055015 52 187 4.0 10.0 0.00 0.00 0.00 72 1002.3
20260509054529 52 194 3.0 8.0 0.00 0.00 0.00 73 1002.3
20260509054014 52 161 3.0 8.0 0.00 0.00 0.00 73 1002.4
20260509053515 52 142 2.0 7.0 0.00 0.00 0.00 73 1002.4
20260509053039 51 152 2.0 6.0 0.00 0.00 0.00 73 1002.7
20260509052515 51 202 0.0 6.0 0.00 0.00 0.00 74 1002.9
20260509052014 51 192 2.0 6.0 0.00 0.00 0.00 74 1002.9